Cairo, IL

11:59 PM CDT on September 24, 2017 (GMT -0500)
Cairo Regional

Weather History for KCIR - April, 2013

Change the Weather History Date:

Thursday, April 4, 2013

  Actual Average Record
Temperature  
Mean Temperature 50 °F -  
Max Temperature 61 °F 63 °F 80 °F (2012)
Min Temperature 40 °F 44 °F 31 °F (1987)
Degree Days  
Heating Degree Days 14    
Moisture  
Dew Point 28 °F    
Average Humidity 46    
Maximum Humidity 78    
Minimum Humidity 27    
Precipitation  
Precipitation 0.00 in - - ()
Sea Level Pressure  
Sea Level Pressure 30.09 in    
Wind  
Wind Speed 6 mph (NE)    
Max Wind Speed 10 mph    
Max Gust Speed -    
Visibility 10 miles    
Events      
Averages and records for this station are not official NWS values.
T = Trace of Precipitation, MM = Missing Value Source: NWS Daily Summary

Daily Weather History Graph

Daily Weather History Graph

Search for Another Location

Airport or City:

Trip Planner

Search our weather history database for the weather conditions in past years. The results will help you decide how hot, cold, wet, or windy it might be!

Date:

Astronomy

Apr. 04, 2013 Rise Set
Actual Time 6:37 AM CDT 7:22 PM CDT
Civil Twilight 6:11 AM CDT 7:48 PM CDT
Nautical Twilight 5:40 AM CDT 8:19 PM CDT
Astronomical Twilight 5:08 AM CDT 8:51 PM CDT
Moon 2:56 AM CDT (4/4) 1:47 PM CDT (4/4)
Length of Visible Light 13h 37m
Length of Day
12h 44m
Waning Crescent, 33% of the Moon is Illuminated
Apr 4
Waning Crescent
Apr 10
New
Apr 18
First Quarter
Apr 25
Full
May 2
Last Quarter

Hourly Weather History & Observations

Time (CDT) Temp. Windchill Dew Point Humidity Pressure Visibility Wind Dir Wind Speed Gust Speed Precip Events Conditions
12:15 AM 46.9 °F - 24.8 °F 42% 30.20 in 10.0 mi NE 8.1 mph - N/A   Clear
12:35 AM 46.4 °F 41.9 °F 24.6 °F 42% 30.19 in 10.0 mi NE 9.2 mph - N/A   Clear
12:55 AM 45.7 °F 42.7 °F 25.0 °F 44% 30.20 in 10.0 mi ENE 5.8 mph - N/A   Clear
1:15 AM 44.8 °F 41.0 °F 26.4 °F 49% 30.19 in 10.0 mi NE 6.9 mph - N/A   Clear
1:35 AM 44.6 °F 40.7 °F 25.5 °F 47% 30.18 in 10.0 mi NNE 6.9 mph - N/A   Clear
1:55 AM 44.8 °F 41.6 °F 25.0 °F 46% 30.18 in 10.0 mi NNE 5.8 mph - N/A   Clear
2:15 AM 44.2 °F 41.0 °F 25.3 °F 47% 30.17 in 10.0 mi NNE 5.8 mph - N/A   Clear
2:35 AM 44.1 °F 39.5 °F 25.7 °F 49% 30.15 in 10.0 mi NNE 8.1 mph - N/A   Clear
2:55 AM 44.2 °F 41.8 °F 26.1 °F 49% 30.14 in 10.0 mi NNE 4.6 mph - N/A   Clear
3:15 AM 44.2 °F 41.0 °F 25.7 °F 48% 30.14 in 10.0 mi NNE 5.8 mph - N/A   Clear
3:35 AM 44.8 °F 41.0 °F 24.8 °F 46% 30.14 in 10.0 mi North 6.9 mph - N/A   Clear
3:55 AM 45.0 °F 41.2 °F 23.9 °F 44% 30.14 in 10.0 mi NNE 6.9 mph - N/A   Clear
4:15 AM 44.6 °F 40.7 °F 24.4 °F 45% 30.14 in 10.0 mi NNE 6.9 mph - N/A   Clear
4:35 AM 44.1 °F 39.5 °F 24.6 °F 46% 30.13 in 10.0 mi NNE 8.1 mph - N/A   Clear
4:55 AM 43.7 °F 39.7 °F 24.8 °F 47% 30.13 in 10.0 mi NNE 6.9 mph - N/A   Clear
5:15 AM 43.2 °F 39.0 °F 25.2 °F 49% 30.12 in 10.0 mi NNE 6.9 mph - N/A   Clear
5:35 AM 42.3 °F 37.9 °F 25.3 °F 51% 30.12 in 10.0 mi NNE 6.9 mph - N/A   Clear
5:55 AM 41.7 °F 37.3 °F 25.3 °F 52% 30.12 in 10.0 mi NNE 6.9 mph - N/A   Scattered Clouds
6:15 AM 41.4 °F 36.8 °F 25.2 °F 53% 30.12 in 10.0 mi NNE 6.9 mph - N/A   Scattered Clouds
6:35 AM 41.0 °F 36.4 °F 25.0 °F 53% 30.12 in 10.0 mi NNE 6.9 mph - N/A   Mostly Cloudy
6:55 AM 41.2 °F 37.3 °F 25.5 °F 54% 30.12 in 10.0 mi NNE 5.8 mph - N/A   Mostly Cloudy
7:15 AM 42.1 °F 37.1 °F 25.0 °F 51% 30.13 in 10.0 mi NNE 8.1 mph - N/A   Mostly Cloudy
7:35 AM 42.8 °F 38.0 °F 25.3 °F 50% 30.13 in 10.0 mi NNE 8.1 mph - N/A   Overcast
7:55 AM 43.2 °F 39.0 °F 25.7 °F 50% 30.13 in 10.0 mi NNE 6.9 mph - N/A   Overcast
8:15 AM 44.2 °F 39.7 °F 26.1 °F 49% 30.13 in 10.0 mi NNE 8.1 mph - N/A   Overcast
8:35 AM 44.1 °F 39.5 °F 25.5 °F 48% 30.13 in 10.0 mi NNE 8.1 mph - N/A   Overcast
8:55 AM 44.6 °F 39.7 °F 25.7 °F 48% 30.12 in 10.0 mi NNE 9.2 mph - N/A   Mostly Cloudy
9:15 AM 45.5 °F 41.3 °F 26.6 °F 48% 30.12 in 10.0 mi NNE 8.1 mph - N/A   Overcast
9:35 AM 45.9 °F 40.8 °F 26.1 °F 46% 30.12 in 10.0 mi NNE 10.4 mph - N/A   Overcast
9:55 AM 46.8 °F - 25.3 °F 43% 30.12 in 10.0 mi NE 9.2 mph - N/A   Overcast
10:15 AM 47.7 °F - 25.5 °F 42% 30.12 in 10.0 mi NE 9.2 mph - N/A   Overcast
10:35 AM 48.7 °F - 25.7 °F 41% 30.12 in 10.0 mi NE 8.1 mph - N/A   Overcast
10:55 AM 49.5 °F - 26.1 °F 40% 30.12 in 10.0 mi NE 8.1 mph - N/A   Mostly Cloudy
11:35 AM 52.2 °F - 26.2 °F 37% 30.11 in 10.0 mi ENE 8.1 mph - N/A   Overcast
11:55 AM 53.4 °F - 27.3 °F 37% 30.10 in 10.0 mi East 4.6 mph - N/A   Overcast
12:15 PM 54.3 °F - 27.3 °F 35% 30.10 in 10.0 mi NNE 4.6 mph - N/A   Overcast
12:35 PM 54.7 °F - 27.7 °F 35% 30.09 in 10.0 mi NNE 4.6 mph - N/A   Overcast
12:55 PM 54.1 °F - 27.5 °F 36% 30.08 in 10.0 mi ENE 3.5 mph - N/A   Overcast
1:15 PM 54.1 °F - 28.4 °F 37% 30.08 in 10.0 mi NNE 4.6 mph - N/A   Overcast
1:35 PM 54.5 °F - 28.4 °F 37% 30.07 in 10.0 mi NE 3.5 mph - N/A   Overcast
1:55 PM 55.2 °F - 28.9 °F 37% 30.07 in 10.0 mi ENE 3.5 mph - N/A   Overcast
2:15 PM 55.8 °F - 28.4 °F 35% 30.06 in 10.0 mi NNE 3.5 mph - N/A   Mostly Cloudy
2:35 PM 55.8 °F - 28.4 °F 35% 30.06 in 10.0 mi ENE 4.6 mph - N/A   Overcast
2:55 PM 55.8 °F - 28.6 °F 35% 30.05 in 10.0 mi NNE 4.6 mph - N/A   Overcast
3:15 PM 56.3 °F - 28.6 °F 35% 30.04 in 10.0 mi East 4.6 mph - N/A   Overcast
3:35 PM 57.6 °F - 27.5 °F 32% 30.04 in 10.0 mi Calm Calm - N/A   Overcast
3:55 PM 59.4 °F - 28.6 °F 31% 30.03 in 10.0 mi East 3.5 mph - N/A   Mostly Cloudy
4:15 PM 59.7 °F - 26.8 °F 28% 30.02 in 10.0 mi NNE 4.6 mph - N/A   Mostly Cloudy
4:35 PM 60.4 °F - 25.7 °F 27% 30.02 in 10.0 mi NNE 3.5 mph - N/A   Scattered Clouds
4:55 PM 58.6 °F - 26.2 °F 29% 30.02 in 10.0 mi North 3.5 mph - N/A   Scattered Clouds
5:15 PM 58.6 °F - 27.3 °F 30% 30.02 in 10.0 mi NNE 4.6 mph - N/A   Scattered Clouds
5:35 PM 59.0 °F - 26.6 °F 29% 30.02 in 10.0 mi ENE 4.6 mph - N/A   Scattered Clouds
5:55 PM 59.9 °F - 28.0 °F 30% 30.02 in 10.0 mi ENE 3.5 mph - N/A   Scattered Clouds
6:15 PM 58.6 °F - 27.1 °F 30% 30.02 in 10.0 mi Calm Calm - N/A   Mostly Cloudy
6:35 PM 57.7 °F - 30.6 °F 36% 30.02 in 10.0 mi ESE 4.6 mph - N/A   Clear
6:55 PM 56.3 °F - 32.0 °F 40% 30.02 in 10.0 mi Calm Calm - N/A   Clear
7:15 PM 55.2 °F - 30.4 °F 39% 30.02 in 10.0 mi Calm Calm - N/A   Clear
7:35 PM 55.2 °F - 27.7 °F 35% 30.02 in 10.0 mi Calm Calm - N/A   Clear
7:55 PM 49.8 °F - 30.0 °F 47% 30.02 in 10.0 mi Calm Calm - N/A   Clear
8:15 PM 51.1 °F - 31.6 °F 47% 30.03 in 10.0 mi SSW 3.5 mph - N/A   Clear
8:35 PM 49.5 °F - 33.1 °F 53% 30.03 in 10.0 mi Calm Calm - N/A   Clear
8:55 PM 49.1 °F - 34.0 °F 56% 30.04 in 10.0 mi Calm Calm - N/A   Clear
9:15 PM 45.9 °F - 34.2 °F 64% 30.05 in 10.0 mi Calm Calm - N/A   Clear
9:35 PM 44.8 °F - 33.1 °F 64% 30.05 in 10.0 mi Calm Calm - N/A   Clear
9:55 PM 44.6 °F - 33.8 °F 66% 30.05 in 10.0 mi Calm Calm - N/A   Clear
10:15 PM 42.4 °F - 33.3 °F 70% 30.05 in 10.0 mi Calm Calm - N/A   Clear
10:35 PM 42.8 °F - 34.2 °F 72% 30.05 in 10.0 mi Calm Calm - N/A   Clear
10:55 PM 42.8 °F - 34.7 °F 73% 30.05 in 10.0 mi Calm Calm - N/A   Clear
11:15 PM 41.0 °F - 34.0 °F 76% 30.06 in 10.0 mi Calm Calm - N/A   Clear
11:35 PM 42.4 °F - 36.0 °F 78% 30.06 in 10.0 mi Calm Calm - N/A   Clear
11:55 PM 40.6 °F - 34.3 °F 78% 30.06 in 10.0 mi Calm Calm - N/A   Clear